NSK6876 SBCX-SBSP

Flight info

Callsign NSK6876
Flight time N/A
Altitude 35000
Route ANLER UM540 ANISE
Aircraft B737/M-SDE2E3FGHIRWXY/LB1

Departure

Time 2026-04-18 15:50
Airport Hugo Cantergiani Regional Airport (SBCX)

Arrival

Time N/A
Airport Congonhas–Deputado Freitas Nobre Airport (SBSP)
Time Latitude Longitude Altitude Speed Heading
2026-04-18 14:57 -29.19501 -51.18782 2461 ft 0 kts 50°
2026-04-18 15:39 -29.19503 -51.18784 2461 ft 1 kts 50°
2026-04-18 15:39 -29.19506 -51.18795 2462 ft 2 kts 89°
2026-04-18 15:39 -29.19509 -51.18811 2462 ft 2 kts 86°
2026-04-18 15:40 -29.19507 -51.18829 2463 ft 2 kts 108°
2026-04-18 15:40 -29.19501 -51.18844 2463 ft 2 kts 129°
2026-04-18 15:40 -29.19494 -51.18851 2463 ft 0 kts 142°
2026-04-18 15:40 -29.19493 -51.18852 2464 ft 0 kts 142°
2026-04-18 15:43 -29.19494 -51.18852 2463 ft 0 kts 142°
2026-04-18 15:43 -29.19509 -51.18837 2463 ft 4 kts 137°
2026-04-18 15:43 -29.19540 -51.18803 2462 ft 7 kts 140°
2026-04-18 15:44 -29.19575 -51.18797 2462 ft 0 kts 184°
2026-04-18 15:44 -29.19583 -51.18803 2462 ft 4 kts 210°
2026-04-18 15:44 -29.19616 -51.18833 2463 ft 8 kts 217°
2026-04-18 15:45 -29.19675 -51.18825 2463 ft 11 kts 140°
2026-04-18 15:45 -29.19745 -51.18744 2459 ft 17 kts 133°
2026-04-18 15:45 -29.19847 -51.18621 2451 ft 24 kts 134°
2026-04-18 15:45 -29.19976 -51.18480 2443 ft 28 kts 137°
2026-04-18 15:46 -29.20082 -51.18364 2436 ft 17 kts 136°
2026-04-18 15:46 -29.20168 -51.18271 2427 ft 17 kts 138°
2026-04-18 15:46 -29.20260 -51.18176 2416 ft 19 kts 137°
2026-04-18 15:46 -29.20305 -51.18085 2402 ft 14 kts 28°
2026-04-18 15:47 -29.20281 -51.18095 2404 ft 0 kts 280°
2026-04-18 15:47 -29.20280 -51.18102 2405 ft 6 kts 282°
2026-04-18 15:47 -29.20258 -51.18158 2414 ft 0 kts 309°
2026-04-18 15:48 -29.20230 -51.18193 2418 ft 24 kts 315°
2026-04-18 15:49 -29.19967 -51.18485 2443 ft 87 kts 316°
2026-04-18 15:49 -29.19412 -51.19094 2469 ft 142 kts 318°
2026-04-18 15:49 -29.18664 -51.19904 2781 ft 162 kts 317°
2026-04-18 15:49 -29.17793 -51.20861 2958 ft 177 kts 318°
2026-04-18 15:50 -29.16981 -51.21766 3735 ft 165 kts 316°
2026-04-18 15:50 -29.16173 -51.22688 4364 ft 173 kts 316°
2026-04-18 15:50 -29.15266 -51.23704 4703 ft 196 kts 316°
2026-04-18 15:50 -29.14239 -51.24844 5060 ft 217 kts 316°
2026-04-18 15:51 -29.13240 -51.25951 5604 ft 224 kts 316°
2026-04-18 15:51 -29.11921 -51.26981 6247 ft 227 kts 342°
2026-04-18 15:51 -29.10371 -51.27007 6938 ft 227 kts 13°
2026-04-18 15:51 -29.08974 -51.26243 7554 ft 230 kts 39°
2026-04-18 15:52 -29.08092 -51.24757 8174 ft 233 kts 68°
2026-04-18 15:52 -29.07772 -51.22953 8800 ft 236 kts 86°
2026-04-18 15:52 -29.07789 -51.21074 9393 ft 238 kts 88°
2026-04-18 15:52 -29.07399 -51.19244 9925 ft 240 kts 61°
2026-04-18 15:53 -29.06464 -51.17862 10523 ft 238 kts 46°
2026-04-18 15:53 -29.05464 -51.16742 10922 ft 243 kts 43°
2026-04-18 15:53 -29.04518 -51.15713 10982 ft 247 kts 43°
2026-04-18 15:53 -29.03319 -51.14374 10986 ft 240 kts 44°
2026-04-18 15:54 -29.01914 -51.12774 10997 ft 240 kts 44°
2026-04-18 15:54 -29.01811 -51.12655 10997 ft 240 kts 44°